Terug naar catalogus

SL-8 DEB

ActiefLEO
NORAD 21254·DEBRIS·🇷🇺 Russia

Gelanceerd Feb 12, 1991 vanaf Plesetsk Cosmodrome

Loading…

Volgende Passages (komende 24 uur)

TLE

VersSource: Space-Track

Epoch: Sep 14, 2026, 08:23 UTC

1 21254U 91009BM  26257.34932632 -.00000031  00000-0 -10467-3 0  9994
2 21254  73.8920  28.1640 0189238 357.9333  29.0893 12.39411787607287

Volg SL-8 DEB in realtime met AllMySat

Download on the App Store